Weather Roundup
Issued by NWS Springfield, MO

Home | Current Version | Previous Version | Text Only | Print | Product List | Glossary On
Versions: 1 2 3 4 5 6 7 8 9 10 11 12 13 14 15 16 17 18 19 20 21 22 23 24 25 26 27 28 29 30 31 32 33 34 35 36 37 38 39 40 41 42 43 44 45 46 47 48 49 50
000
NZUS99 KSGF 220907
HRRSGF

HOURLY WEATHER
NATIONAL WEATHER SERVICE SPRINGFIELD MO
400 AM CDT SAT JUL 22 2017

......SGF CWA......

CITY           SKY/WX    TMP DP  RH WIND       PRES   REMARKS
SPRINGFIELD    CLEAR     76  72  87 SW7       29.93S
JOPLIN         CLEAR     82  72  71 SW10      29.91S
WEST PLAINS    CLEAR     78  72  81 SW6       29.95S
ROLLA          CLEAR     76  72  87 SW6       29.90R
OSAGE BEACH    CLEAR     78  71  79 SW5       29.90R
BRANSON          N/A     77  70  78 SW5       29.96S

......SURROUNDING SGF CWA......

CITY           SKY/WX    TMP DP  RH WIND       PRES   REMARKS
CHANUTE        CLEAR     82  72  71 SW10      29.88S
PARSONS        CLEAR     81  72  74 S8        29.89F
COFFEYVILLE    CLEAR     80  72  76 S9        29.88F
EMPORIA        CLEAR     82  70  66 S16G23    29.85S
GROVE OK       CLEAR     79  72  78 S5        29.92F
ROGERS AR      CLEAR     76  70  82 S6        29.96F
SILOAM SPRINGS CLEAR     75  68  78 S5        29.95S
HARRISON AR    CLEAR     77  69  76 CALM      29.96S
NEAR YELLVILLE CLEAR     79  68  69 SW6       29.90F

......KANSAS AND MISSOURI......

CITY           SKY/WX    TMP DP  RH WIND       PRES   REMARKS
KANSAS CTY INT CLEAR     83  72  69 SW17      29.81F
DOWNTOWN KC    CLEAR     86  73  65 SW13G22   29.80F HX  93
COLUMBIA       CLEAR     77  70  79 S6        29.87S
SEDALIA        CLEAR     83  73  72 SW14      29.87S
ST JOSEPH      CLEAR     83  74  74 SW14      29.77F
ST LOUIS       CLEAR     87  72  60 SW10      29.87R HX  93
SPIRIT OF STL  CLEAR     82  73  74 W5        29.86R
KIRKSVILLE     PTCLDY    83  71  67 SW10G22   29.82S
WICHITA        CLEAR     81  70  69 S9        29.87F
TOPEKA         CLEAR     85  73  67 S10G20    29.80F HX  91
OLATHE         CLEAR     81  73  76 SW10      29.85S

......TENNESSEE......

CITY           SKY/WX    TMP DP  RH WIND       PRES   REMARKS
MEMPHIS        CLEAR     81  76  84 CALM      29.94S
NASHVILLE      CLEAR     79  74  84 CALM      29.96R

......ARKANSAS.......

CITY           SKY/WX    TMP DP  RH WIND       PRES   REMARKS
FAYETTEVILLE   CLEAR     73  71  93 S5        29.96F
FT SMITH       CLEAR     79  75  87 E5        29.91F
LITTLE ROCK    PTCLDY    80  78  94 CALM      29.93S

......OKLAHOMA.......

CITY           SKY/WX    TMP DP  RH WIND       PRES   REMARKS
TULSA          PTCLDY    84  70  62 S13       29.88F
PONCA CITY     CLEAR     83  68  60 S6        29.88F
MCALESTER      CLEAR     78  71  79 S5        29.94F
OKLAHOMA CITY  CLEAR     78  68  71 S8        29.93F

......IOWA............

CITY           SKY/WX    TMP DP  RH WIND       PRES   REMARKS
DES MOINES     CLOUDY    83  73  72 S5        29.74S
QUAD CITIES    LGT RAIN  70  67  90 E20       29.87R

......ILLINOIS........

CITY           SKY/WX    TMP DP  RH WIND       PRES   REMARKS
QUINCY         CLOUDY    82  69  64 SW13      29.81F
CHICAGO        LGT RAIN  72  70  93 SW8       29.83R




USA.gov is the U.S. government's official web portal to all federal, state and local government web resources and services.